This is the latest recevied weather packets stored in our database for station/object DL2GFH-3. If no packets are shown the sender has not sent any weather packets the latest 10 day(s).
| Time | Temp. | Humidity | Pressure | Rain* | Wind** | Luminosity | Snow |
|---|---|---|---|---|---|---|---|
| 1777564812 | 19.44° C | 22% | 1022 hPa | - | - | - | - |
| 1777563907 | 19.44° C | 23% | 1022 hPa | - | - | - | - |
| 1777562096 | 19.44° C | 23% | 1021.9 hPa | - | - | - | - |
| 1777561190 | 19.44° C | 22% | 1021.9 hPa | - | - | - | - |
| 1777559380 | 20.56° C | 22% | 1021.9 hPa | - | - | - | - |
| 1777558474 | 20° C | 23% | 1021.9 hPa | - | - | - | - |
| 1777557569 | 20° C | 23% | 1021.9 hPa | - | - | - | - |
| 1777556663 | 20° C | 22% | 1021.9 hPa | - | - | - | - |
| 1777555758 | 20.56° C | 22% | 1022 hPa | - | - | - | - |
| 1777554852 | 20.56° C | 21% | 1022 hPa | - | - | - | - |
| 1777553947 | 21.11° C | 21% | 1021.9 hPa | - | - | - | - |
| 1777553042 | 21.67° C | 21% | 1022 hPa | - | - | - | - |
| 1777552136 | 21.67° C | 20% | 1022.1 hPa | - | - | - | - |
| 1777551231 | 22.22° C | 20% | 1022.2 hPa | - | - | - | - |
| 1777550325 | 22.78° C | 19% | 1022.3 hPa | - | - | - | - |
| 1777549420 | 22.78° C | 19% | 1022.2 hPa | - | - | - | - |
| 1777548515 | 23.33° C | 19% | 1022.1 hPa | - | - | - | - |
| 1777547609 | 23.89° C | 18% | 1022 hPa | - | - | - | - |
| 1777546704 | 24.44° C | 18% | 1022.3 hPa | - | - | - | - |
| 1777545798 | 24.44° C | 17% | 1022.3 hPa | - | - | - | - |
| 1777544893 | 25° C | 17% | 1022.4 hPa | - | - | - | - |
| 1777543987 | 25° C | 17% | 1022.5 hPa | - | - | - | - |
| 1777543082 | 24.44° C | 17% | 1022.5 hPa | - | - | - | - |
| 1777542177 | 24.44° C | 17% | 1022.4 hPa | - | - | - | - |
| 1777541271 | 25° C | 17% | 1022.4 hPa | - | - | - | - |
* Rain since midnight (hover to see other rain measurements)
** Current wind speed in m/s (hover to see current wind gust speed)